Regional Weather Roundup
Issued by NWS

Home | Current Version | Previous Version | Graphics & Text | Print | Product List | Glossary On
Versions: 1 2 3 4 5 6 7 8 9 10 11 12 13 14 15 16 17 18 19 20 21 22 23 24 25 26 27 28 29 30 31 32 33 34 35 36 37 38 39 40 41 42 43 44 45 46 47 48 49 50
000
ASUS44 KMEG 010700
RWRTN
TENNESSEE HOURLY STATE WEATHER ROUNDUP
NATIONAL WEATHER SERVICE MEMPHIS TN
200 AM CDT WED OCT 01 2014

TNZ002-004-019-021-049-052-054-088>092-010800-
WEST TENNESSEE

CITY           SKY/WX    TMP DP  RH WIND       PRES   REMARKS
MEMPHIS INTL   PTCLDY    72  61  68 VRB3      29.89R
NWS MEMPHIS      N/A     65 N/A N/A MISG        N/A
JACKSON        CLEAR     61  58  90 CALM      29.90S FOG
DYERSBURG      CLEAR     63  52  67 CALM      29.91S
UNION CITY     CLEAR     57  55  94 CALM      29.89S
PARIS          CLEAR     55  54  94 CALM      29.92S
SAVANNAH       CLEAR     59  59 100 CALM      29.92S
$$

TNZ008-025-027-028-033-062-065-066-010800-
NORTH MIDDLE TENNESSEE

CITY           SKY/WX    TMP DP  RH WIND       PRES   REMARKS
NASHVILLE      CLEAR     61  56  83 CALM      29.94S
CLARKSVILLE    PTCLDY    59  56  89 CALM      29.92S
COOKEVILLE       N/A     50  50 100 CALM      29.95S VSB 1/2
CROSSVILLE     CLEAR     56  51  84 CALM      29.99S
$$

TNZ061-075-076-078-094-096-097-010800-
SOUTH MIDDLE TENNESSEE

CITY           SKY/WX    TMP DP  RH WIND       PRES   REMARKS
WINCHESTER     CLEAR     55  54  94 CALM      29.96R
SHELBYVILLE    PTCLDY    57  55  94 CALM      29.95S
$$

TNZ017-018-042-046-047-010800-
NORTHEAST TENNESSEE

CITY           SKY/WX    TMP DP  RH WIND       PRES   REMARKS
TRI CITIES     CLEAR     52  50  93 CALM      29.98S FOG
ELIZABETHTON   SUNNY     55  54  94 NE3       29.99F
$$

TNZ012-013-036-069-073-074-010800-
CENTRAL EAST TENNESSEE

CITY           SKY/WX    TMP DP  RH WIND       PRES   REMARKS
KNOXVILLE      CLEAR     60  57  89 NE3       29.94S
OAK RIDGE      PTCLDY    58  56  93 CALM      29.98R FOG
GATLINBURG     SUNNY     55  54  94 CALM      29.95F
MORRISTOWN     SUNNY     57  55  94 CALM      29.97F
$$

TNZ083-085-099-010800-
SOUTHEAST TENNESSEE

CITY           SKY/WX    TMP DP  RH WIND       PRES   REMARKS
CHATTANOOGA    PTCLDY    64  60  87 CALM      29.95R
$$

SKY/WX REPORTED AS FAIR MEANS FEW OR NO CLOUDS BELOW
12 THOUSAND FEET.



USA.gov is the U.S. government's official web portal to all federal, state and local government web resources and services.